Location: Unspecified
(0.0000°N, 0.0000°E)
Time: 22:21:56
(UTC+00:00)

N. Korean satellite - Pass Details

Date: 05 December 2021
Orbit: 447 x 491 km, 97.3° (Epoch: 23 January)

Event Time Altitude Azimuth Distance (km) Brightness Sun altitude
Rises 04:33:01 0° 22° (NNE) 2,435 10.1 -17.9°
Reaches altitude 10° 04:35:06 10° 30° (NNE) 1,571 9.2 -17.4°
Maximum altitude 04:38:17 40° 101° (E) 676 7.8 -16.7°
Drops below altitude 10° 04:41:31 10° 172° (S) 1,597 9.6 -15.9°
Sets 04:43:39 0° 180° (S) 2,481 10.5 -15.4°
